Lexington Weather

Lexington, Massachusetts, USA

44°F
5/12/2021 5:13am 
  • Lexington Conditions: Clear
  • Temperature: 44.4°F / 6.9°C 
  • Dew Point: 33.4°FIncreased 0.9°Fsince last hour.
  • Relative Humidity: 65%Increased 2.0% since last hour.
  • Wind: Calm, 10-min avg: Calm, gust: 3 mph
  • Barometer: 29.94 inRising 0.02  inHg/hr Rising Slowly
  • Visibility: 10 miles
  • Rain Today: 0.00 in
  •   

Regional Weather Roundup
for Boston / Norton, MA

        
000
ASUS41 KBOX 111704
RWRBOX

REGIONAL WEATHER ROUNDUP
NATIONAL WEATHER SERVICE BOSTON/NORTON MA
100 PM EDT TUE MAY 11 2021

NOTE:  "FAIR" INDICATES FEW OR NO CLOUDS BELOW 12,000 FEET WITH NO 
SIGNIFICANT WEATHER AND/OR OBSTRUCTIONS TO VISIBILITY.

MAZALL-111800-
EASTERN MASSACHUSETTS
  
CITY           SKY/WX    TMP DP  RH WIND       PRES   REMARKS
BOSTON         MOSUNNY   63  24  22 W17G26    29.92F                  
BEVERLY        MOSUNNY   61  30  31 W13G25    29.90F                  
LAWRENCE       MOSUNNY   60  31  33 W10G20    29.92F                  
BEDFORD        MOSUNNY   62  27  26 W13G26    29.91F                  
BLUE HILL        N/A     60  26  27 W22G30    29.91F                  
NORWOOD        SUNNY     63  27  25 W18G31    29.92F                  
MARSHFIELD     SUNNY     63  28  27 W10G24    29.91F                  
PLYMOUTH       SUNNY     63  27  25 W17G28    29.92F                  
TAUNTON        MOSUNNY   63  26  24 W12G30    29.93F                  
NEW BEDFORD    MOSUNNY   63  29  27 W20G30    29.93F                  
$$

MAZALL-111800-
CAPE COD AND THE ISLANDS
  
CITY           SKY/WX    TMP DP  RH WIND       PRES   REMARKS
FALMOUTH       SUNNY     61  36  39 SW23      29.94F                  
HYANNIS        SUNNY     62  38  40 SW17G28   29.91F                  
CHATHAM        SUNNY     61  43  51 SW10G20   29.94F                  
PROVINCETOWN   SUNNY     58  38  47 NW10      29.93F                  
NANTUCKET      SUNNY     58  43  57 SW21      29.96F                  
MARTHAS VNYRD  SUNNY     62  38  40 W12G24    29.95F                  
$$
 
MAZALL-111800-
CENTRAL AND WESTERN MASSACHUSETTS
  
CITY           SKY/WX    TMP DP  RH WIND       PRES   REMARKS
WORCESTER      SUNNY     57  24  28 NW23      29.93F                  
FITCHBURG      SUNNY     60  26  27 NW18G25   29.93F                  
ORANGE         MOSUNNY   58  24  27 W16G26    29.96F                  
SPRINGFIELD    PTSUNNY   61  23  23 NW16G24   29.95F                  
WESTFIELD      MOSUNNY   61  25  25 W12G21    29.96F                  
NORTH ADAMS    PTSUNNY   54  23  30 W18G32    29.98S                  
PITTSFIELD     PTSUNNY   52  25  35 NW20G29   29.97S                  
$$
 
RIZALL-111800-
RHODE ISLAND
  
CITY           SKY/WX    TMP DP  RH WIND       PRES   REMARKS
PROVIDENCE     MOSUNNY   64  29  26 W16G31    29.95F                  
NEWPORT        MOSUNNY   62  31  31 W12G20    29.95F                  
BLOCK ISLAND   MOSUNNY   59  37  44 W20G25    29.99F                  
SMITHFIELD     SUNNY     60  29  30 W12G24    29.94F                  
WESTERLY       MOSUNNY   58  32  37 SW17G30   29.96F                  
$$
 
CTZALL-111800-
CONNECTICUT
  
CITY           SKY/WX    TMP DP  RH WIND       PRES   REMARKS
BRADLEY INTL   MOSUNNY   63  24  22 W13G28    29.97F                  
HARTFORD       MOSUNNY   63  27  25 W13G21    29.98F                  
BRIDGEPORT     SUNNY     64  26  23 NW21G28   29.99F                  
DANBURY        SUNNY     63  28  26 W18G25    30.00F                  
GROTON         MOSUNNY   57  42  57 SW21G29   29.96F                  
NEW HAVEN      SUNNY     62  31  31 W8G17     29.99F                  
CHESTER        NOT AVBL                                               
MERIDEN        MOSUNNY   62  26  25 NW16G22   29.98F                  
WILLIMANTIC    SUNNY     60  28  29 W10G21    29.97F                  
OXFORD         MOSUNNY   59  29  31 W14G21    29.99F                  
$$

MEZ002-015-021-024-NHZ003-005-008-011-012-014-VTZ005-008-111800-
NORTHERN NEW ENGLAND
  
CITY           SKY/WX    TMP DP  RH WIND       PRES   REMARKS
PORTLAND ME    PTSUNNY   58  35  42 NW10      29.84F                  
BANGOR ME      TSTM      54  51  90 S6        29.80F                  
CONCORD NH     MOSUNNY   58  28  32 NW14G26   29.90F                  
MANCHESTER NH  PTSUNNY   60  23  24 W12       29.89F                  
NASHUA NH      PTSUNNY   61  25  25 W12G21    29.92F                  
PORTSMOUTH NH  PTSUNNY   62  26  26 W12       29.89F                  
JAFFREY NH     MOSUNNY   57  25  29 W13G28    29.92F                  
KEENE NH       MOSUNNY   57  27  31 W12G20    29.94F                  
BURLINGTON VT  PTSUNNY   55  28  35 W12G22    29.92S                  
MT. WASHINGTON SNOW      25  25 100 NW38        N/A  VSB 0   WCI   6  
$$

NYZ052-076-111800-
EASTERN NEW YORK
  
CITY           SKY/WX    TMP DP  RH WIND       PRES   REMARKS
ALBANY         PTSUNNY   53  26  35 W17G31    30.01S                  
NEW YORK CITY  MOSUNNY   65  26  23 W15G22    30.01F                  
$$
 
ANZALL-111800-
MARINE OBSERVATIONS
  
STATION/POSITION TIME  TEMP    WIND        PRES    VSBY  WAVE
                       AIR SEA DIR/SP/G                  HT/PER
                 (UTC) (F)     (DEG/KT/KT) (MB)    (MI)  (FT/S)
BOSTON BUOY      1650   53 49  250/ 12/ 16 1012.7F         2/ 3
BUZZARDS BAY     1600          240/ 18/ 20 1015.8F
NANTUCKET SOUND  1650      54                N/A           2/ 3
MASS BAY-STELLWA 1604   53     260/ 14/ 17 1011.8F  1 7/8  2/ 4
ISLE OF SHOALS   1600   54     280/ 13/ 14 1011.7F
S OF BLOCK IS    1626      50                N/A           4/ 9
$$

......................KEY.........................
  SKY/WX - SKY CONDITION/PRESENT WEATHER
  TMP    - TEMPERATURE IN FAHRENHEIT
  DWPT   - DEWPOINT IN FAHRENHEIT
  RH     - RELATIVE HUMIDITY IN PERCENT
  WIND   - DIRECTION AND SPEED IN MPH
  PRES   - MEAN SEA LEVEL PRESSURE IN INCHES OF HG
  WCI    - WIND CHILL INDEX
  VSB    - VISIBILITY IN MILES
  HX     - HEAT INDEX
  TC     - TEMPERATURE IN CELSIUS
  VRB    - VARIABLE WIND DIRECTION
  N/A    - NOT AVAILABLE
  
      

Other recent Regional Weather Roundups

Wed May 12, 5:04am

Wed May 12, 4:04am

Wed May 12, 3:04am

Wed May 12, 2:04am

Wed May 12, 1:04am

Wed May 12, 12:05am

Tue May 11, 11:05pm

Tue May 11, 10:04pm

Tue May 11, 9:05pm

Tue May 11, 8:05pm

Tue May 11, 7:04pm

Tue May 11, 6:04pm

Tue May 11, 5:04pm

Tue May 11, 4:05pm

Tue May 11, 3:04pm

Tue May 11, 2:05pm

Tue May 11, 12:05pm

Tue May 11, 11:05am

Tue May 11, 10:04am

Tue May 11, 9:04am

Tue May 11, 8:04am

Tue May 11, 7:05am

Tue May 11, 6:04am

Tue May 11, 5:04am

Tue May 11, 4:04am

Tue May 11, 3:04am

Tue May 11, 2:04am

Tue May 11, 1:04am

Tue May 11, 12:04am

Mon May 10, 11:04pm

Mon May 10, 10:04pm

Mon May 10, 9:05pm

Mon May 10, 8:04pm

Mon May 10, 7:05pm

Mon May 10, 6:04pm

Mon May 10, 5:04pm

Mon May 10, 4:04pm

Mon May 10, 3:04pm

Mon May 10, 2:04pm

Mon May 10, 1:04pm

Mon May 10, 12:04pm

Mon May 10, 11:05am

Mon May 10, 10:04am

Mon May 10, 9:04am

Mon May 10, 8:04am

Mon May 10, 7:04am

Mon May 10, 6:04am

Mon May 10, 5:05am

Mon May 10, 4:04am

Mon May 10, 3:04am

Mon May 10, 2:04am

Mon May 10, 1:04am

Mon May 10, 12:04am

Sun May 9, 11:04pm

Sun May 9, 10:04pm

Sun May 9, 9:04pm

Sun May 9, 8:04pm

Sun May 9, 7:05pm

Sun May 9, 6:04pm

Sun May 9, 5:04pm

Sun May 9, 4:04pm

Sun May 9, 3:04pm

Sun May 9, 2:04pm

Sun May 9, 1:05pm

Sun May 9, 12:04pm

Sun May 9, 11:05am

Sun May 9, 10:04am

Sun May 9, 9:04am

Sun May 9, 8:04am

Sun May 9, 7:04am

Sun May 9, 6:04am

Sun May 9, 5:04am

Sun May 9, 4:04am

Sun May 9, 3:04am

Sun May 9, 2:04am

Sun May 9, 1:05am

Sun May 9, 12:04am

Sat May 8, 11:05pm

Sat May 8, 10:04pm

Sat May 8, 9:05pm

Sat May 8, 8:04pm

Sat May 8, 7:04pm

Sat May 8, 6:04pm

Sat May 8, 5:05pm

Sat May 8, 4:04pm

Sat May 8, 3:05pm

Sat May 8, 2:05pm

Sat May 8, 1:05pm

Sat May 8, 12:04pm

Sat May 8, 11:05am

Sat May 8, 10:04am

Sat May 8, 9:04am

Sat May 8, 8:04am

Sat May 8, 7:04am

Sat May 8, 6:04am

Sat May 8, 5:04am

Sat May 8, 4:04am

Sat May 8, 3:04am

Sat May 8, 2:04am

Sat May 8, 1:05am

Sat May 8, 12:04am

Fri May 7, 11:04pm

Fri May 7, 10:05pm

Fri May 7, 9:04pm

Fri May 7, 8:04pm

Fri May 7, 7:05pm

Fri May 7, 6:04pm

Fri May 7, 5:05pm

Fri May 7, 4:04pm

Fri May 7, 3:04pm

Fri May 7, 2:05pm

Fri May 7, 1:04pm

Fri May 7, 12:04pm

Fri May 7, 11:05am

Fri May 7, 10:04am

Fri May 7, 9:04am

Fri May 7, 8:05am

Fri May 7, 7:04am

Fri May 7, 6:04am

Fri May 7, 5:04am

Fri May 7, 4:04am

Fri May 7, 3:04am

Fri May 7, 2:05am

Fri May 7, 1:04am

Fri May 7, 12:05am

Thu May 6, 11:04pm

Thu May 6, 10:04pm

Thu May 6, 9:05pm

Thu May 6, 8:04pm

Thu May 6, 7:04pm

Thu May 6, 6:04pm

Thu May 6, 5:05pm

Thu May 6, 4:04pm

Thu May 6, 3:04pm

Thu May 6, 2:05pm

Thu May 6, 1:04pm

Thu May 6, 12:04pm

Thu May 6, 11:04am

Thu May 6, 10:04am

Thu May 6, 9:04am

Thu May 6, 8:04am

Thu May 6, 7:04am

Thu May 6, 6:04am

Thu May 6, 5:04am

Thu May 6, 4:04am

Thu May 6, 3:04am

Thu May 6, 2:05am

Thu May 6, 1:04am

Thu May 6, 12:05am

Wed May 5, 11:04pm

Wed May 5, 10:04pm

Wed May 5, 9:05pm

Wed May 5, 8:04pm

Wed May 5, 7:05pm

Wed May 5, 6:04pm

Wed May 5, 5:04pm

Wed May 5, 4:04pm

Wed May 5, 3:04pm

Wed May 5, 2:05pm

Wed May 5, 1:05pm

Wed May 5, 12:04pm

Wed May 5, 11:05am

Wed May 5, 10:04am

Wed May 5, 9:04am

Wed May 5, 8:04am

Wed May 5, 7:04am

Wed May 5, 6:05am

Meta data:

ID: 8ff245a4-6824-4ca5-84e1-f493b717fc49
Link: https://api.weather.gov/products/8ff245a4-6824-4ca5-84e1-f493b717fc49